sat.trackr.live / text

‹ back to catalog

STARLINK-2071

NORAD 47361 · 2021-005N

PAYLOAD ACTIVE UNKNOWN

§ Identity

Operator
Country
US
Launch date
2021-01-20
Launch site
AFETR
Launch vehicle
Mass (kg)
RCS (m²)

Purposes: comms

External: N2YO · Heavens-Above · Gunter

§ Orbital elements

Epoch: 2026-09-20T02:54:40.439232Z

Period
94.01 min
Inclination
53.1605°
Eccentricity
0.0002124
Mean motion
15.31694974 rev/d
Perigee alt
469.3 km
Apogee alt
472.2 km
Semi-major
6,848.9 km
B*
-6.4592e-6
RAAN
212.5816°
Arg perigee
145.3242°
Mean anomaly
214.7898°
Rev number
31,316

§ Raw data

STARLINK-20711 47361U 21005N   26263.12130138 -.00000566  00000+0 -64592-5 0  99962 47361  53.1605 212.5816 0002124 145.3242 214.7898 15.31694974313160

JSON: /api/v1/satellites/47361 · /tle

For live sub-satellite position, see the globe view (requires WebGL).

§ Visibility from observer

Set your observer location to see the next 7 days of passes ≥ 10°. The values pass through the URL so the page stays shareable.

No JS? Fill the form by hand. The geolocation button needs JavaScript.